OBJECT J, 44887

Orbit data source: Space-Track

You're viewing an Uncataloged Satellite

Recently launched and/or uncataloged satellites may have evolving metadata. Metadata may include but not limited to: Owner, Maufacturer, Bus, Motor, and Mission.

OBJECT J, 44887 is a satellite in SSO that was launched on Fri, 20 Dec 2019 UTC launched from the Taiyaun Space Center, China (TSC). Unknown objects in Earth's orbit typically refer to objects detected orbiting the Earth but have not yet been identified or cataloged. These objects could be anything from previously untracked satellites, spent rocket stages, debris from satellite collisions, or even natural meteoroids temporarily captured by Earth's gravity.

Loading next visibility...
Identifier
44887, 2019-093J
Orbit
SSO
Country
Flag of TBDTBD
Related business
Manufacturer
SAST
Mission
Non-operational spacecraft
Bus & Motor
Unknown
Mass
~200 kg wet, ~200 kg dry
Launch date (UTC)
2019-12-20 (6 years ago)
Launch vehicle
Unknown
Launch site
Taiyaun Space Center, China (TSC)
Object type
Unknown
Shape & HBR
Cyl, Unknown HBR
Radar Cross Section
7.858 m², Medium (>0.1 m² and < 1m²)

Expand to show TLE details & history
Last TLE update: 8 hours ago

TLE from 8 hours ago
0 OBJECT J
1 44887U 19093J   26104.80413442  .00001236  00000-0  12740-3 0  9991
2 44887  97.7917 189.9218 0011173 286.6172  73.3819 14.92016253342537
Epoch: 2026-04-14T19:17Z
TLE epoch observation values (Epoch: 2026-04-14T19:17:57.213Z)
Latitude
-0.00012°
Longitude
57.4583°
Altitude
592.471 km
Speed
7.565 km/s
True Right ascension
12h 39m 41s
True Declination
0° 00' 00"
Sunlit
Object was in full shadow at epoch
Visualization orbit readout
Latitude
Unknown
Longitude
Unknown
Altitude
Unknown
Speed
Unknown
Apparent Right ascension
Unknown
Apparent Declination
Unknown
Sunlit
N/A
Visualization observer readout
Local Sidereal Time
10:00:36
Azimuth
Unknown
Elevation
Unknown
Doppler factor
Unknown
Orbital elements
Apogee altitude
596.453 km
Perigee altitude
580.885 km
Semi-major axis
6,966.806 km
Eccentricity
0.00112
Inclination
97.7917°
RAAN
189.9218°
Arg. of periapsis
286.6172°
True anomaly
73.50463°
Mean anomaly
73.3819°
Eccentric anomaly
73.44326°
Mean motion
3.73244 °/min
Orbital period
96.45 mins
BSTAR
0.0001274
Loading maneuver chart data...
Computing Atmospheric mass density...
Loading historical data...
Loading historical data...
Loading historical data...
Loading historical data...
Loading historical data...
Loading historical data...
Loading historical data...

Documentation

Showing up to 5 results
|